QPF
0.00 0.00 0.00 0.00 0.00 0.00 0.00 0.00 0.00 0.00 0.00 0.00 0.00 0.00 0.00 0.00 0.00 0.00 0.00 0.00 0.00 0.00 0.00 0.00 0.00 0.00 0.00 0.00 0.00 0.00 0.00 0.00 0.00 0.00 0.00 0.01 0.00 0.00 0.00 0.00 0.00 0.00 0.00 0.00 0.00 0.00 0.00 0.00 0.00
0.00 0.00 0.00 0.00 0.00 0.00 0.00 0.00 0.00 0.00 0.00 0.00 0.00 0.00 0.00 0.00 0.00 0.00 0.00 0.00 0.00 0.00 0.00 0.00 0.00 0.00 0.00 0.00 0.00 0.00 0.00 0.00 0.00 0.00 0.00 0.00 0.00 0.00 0.00 0.00 0.00 0.00 0.00 0.00 0.00 0.00 0.00 0.00 0.00
0.00 0.00 0.00 0.00 0.00 0.00 0.00 0.00 0.00 0.00 0.00 0.00 0.00 0.00 0.00 0.00 0.00 0.00 0.00 0.00 0.00 0.00 0.00 0.00 0.00 0.00 0.00 0.00 0.00 0.00 0.00 0.00 0.00 0.00 0.00 0.00 0.00 0.00 0.00 0.00 0.00 0.00 0.00 0.00 0.00 0.00 0.00 0.00 0.00
0.00 0.00 0.00 0.00 0.00 0.00 0.00 0.00 0.00 0.00 0.00 0.00 0.00 0.00 0.00 0.00 0.00 0.00 0.00 0.00 0.00 0.00 0.00 0.00 0.00 0.00 0.00 0.00 0.00 0.00 0.00 0.00 0.00 0.00 0.00 0.00 0.00 0.00 0.00 0.00 0.00 0.00 0.00 0.00 0.00 0.00 0.00 0.00 0.00
0.00 0.00 0.00 0.00 0.00 0.00 0.00 0.00 0.00 0.00 0.00 0.00 0.00 0.00 0.00 0.00 0.00 0.00 0.00 0.00 0.00 0.00 0.00 0.00 0.00 0.00 0.00 0.00 0.00 0.00 0.00 0.00 0.00 0.00 0.00 0.00 0.00 0.00 0.00 0.00 0.00 0.00 0.00 0.00 0.00 0.00 0.00 0.00 0.00
0.00 0.00 0.00 0.00 0.00 0.00 0.00 0.00 0.00 0.00 0.00 0.00 0.00 0.00 0.00 0.00 0.00 0.00 0.00 0.00 0.00 0.00 0.00 0.00 0.00 0.00 0.00 0.00 0.00 0.00 0.00 0.00 0.00 0.00 0.00 0.00 0.00 0.00 0.00 0.00 0.00 0.00 0.00 0.00 0.00 0.00 0.00 0.00 0.00
0.00 0.00 0.00 0.00 0.00 0.00 0.00 0.00 0.00 0.00 0.00 0.00 0.00 0.00 0.00 0.00 0.00 0.00 0.00 0.00 0.00 0.00 0.00 0.00 0.00 0.00 0.00 0.00 0.00 0.00 0.00 0.00 0.01 0.00 0.00 0.00 0.00 0.00 0.00 0.00 0.00 0.00 0.00 0.00 0.00 0.00 0.00 0.00 0.00
0.00 0.00 0.00 0.00 0.00 0.00 0.00 0.00 0.00 0.00 0.00 0.00 0.00 0.00 0.00 0.00 0.00 0.00 0.00 0.00 0.00 0.00 0.00 0.00 0.00 0.00 0.00 0.00 0.00 0.01 0.01 0.00 0.01 0.01 0.00 0.00 0.00 0.00 0.00 0.00 0.00 0.00 0.00 0.00 0.00 0.00 0.00 0.00 0.00
0.00 0.00 0.00 0.00 0.00 0.00 0.00 0.00 0.00 0.00 0.00 0.00 0.00 0.00 0.00 0.00 0.00 0.00 0.00 0.00 0.00 0.00 0.00 0.00 0.00 0.00 0.00 0.00 0.00 0.00 0.01 0.01 0.01 0.01 0.00 0.00 0.00 0.00 0.00 0.00 0.00 0.00 0.00 0.00 0.00 0.00 0.00 0.00 0.00
0.00 0.00 0.00 0.00 0.00 0.00 0.00 0.00 0.00 0.00 0.00 0.00 0.00 0.00 0.00 0.00 0.00 0.00 0.00 0.00 0.00 0.00 0.00 0.00 0.00 0.00 0.00 0.00 0.00 0.00 0.00 0.00 0.00 0.00 0.00 0.00 0.00 0.00 0.00 0.00 0.00 0.00 0.00 0.00 0.00 0.00 0.00 0.00 0.00
0.00 0.00 0.00 0.00 0.00 0.00 0.00 0.00 0.00 0.00 0.00 0.00 0.00 0.00 0.00 0.00 0.00 0.00 0.00 0.00 0.00 0.00 0.00 0.00 0.00 0.00 0.00 0.00 0.00 0.00 0.00 0.00 0.00 0.00 0.00 0.00 0.00 0.00 0.00 0.00 0.00 0.00 0.00 0.00 0.00 0.00 0.00 0.00 0.00
0.00 0.00 0.00 0.00 0.00 0.00 0.00 0.00 0.00 0.00 0.00 0.00 0.00 0.00 0.00 0.00 0.00 0.00 0.00 0.00 0.00 0.00 0.00 0.00 0.00 0.00 0.00 0.00 0.00 0.00 0.00 0.00 0.00 0.00 0.00 0.00 0.00 0.00 0.00 0.00 0.00 0.00 0.00 0.00 0.00 0.00 0.00 0.00 0.00
0.00 0.00 0.00 0.00 0.00 0.00 0.00 0.00 0.00 0.00 0.00 0.00 0.00 0.00 0.00 0.00 0.00 0.00 0.00 0.00 0.00 0.00 0.00 0.00 0.00 0.00 0.00 0.00 0.00 0.00 0.00 0.00 0.00 0.00 0.00 0.00 0.00 0.00 0.00 0.00 0.00 0.00 0.00 0.00 0.00 0.00 0.00 0.00 0.00
0.00 0.00 0.00 0.00 0.00 0.00 0.00 0.00 0.00 0.00 0.00 0.00 0.00 0.00 0.00 0.00 0.00 0.00 0.00 0.00 0.00 0.00 0.00 0.00 0.00 0.00 0.00 0.00 0.00 0.00 0.00 0.00 0.00 0.00 0.00 0.00 0.00 0.00 0.00 0.00 0.00 0.00 0.00 0.00 0.00 0.00 0.00 0.00 0.00
0.00 0.00 0.00 0.00 0.00 0.00 0.00 0.00 0.00 0.00 0.00 0.00 0.00 0.00 0.00 0.00 0.00 0.00 0.00 0.00 0.00 0.00 0.00 0.00 0.00 0.00 0.00 0.00 0.00 0.00 0.00 0.00 0.00 0.00 0.00 0.00 0.00 0.00 0.00 0.00 0.00 0.00 0.00 0.00 0.00 0.00 0.00 0.00 0.00
0.00 0.00 0.00 0.00 0.00 0.00 0.00 0.00 0.00 0.00 0.00 0.00 0.00 0.00 0.00 0.00 0.00 0.00 0.00 0.00 0.00 0.00 0.00 0.00 0.00 0.00 0.00 0.00 0.00 0.00 0.00 0.00 0.00 0.00 0.00 0.00 0.00 0.00 0.00 0.00 0.00 0.00 0.00 0.00 0.00 0.00 0.00 0.00 0.00
0.00 0.00 0.00 0.00 0.00 0.00 0.00 0.00 0.00 0.00 0.00 0.00 0.00 0.00 0.00 0.00 0.00 0.00 0.00 0.00 0.00 0.00 0.00 0.00 0.00 0.00 0.00 0.00 0.00 0.00 0.00 0.00 0.00 0.00 0.00 0.00 0.00 0.00 0.00 0.00 0.00 0.00 0.00 0.00 0.00 0.00 0.00 0.00 0.00
0.00 0.00 0.00 0.00 0.00 0.00 0.00 0.00 0.00 0.00 0.00 0.00 0.00 0.00 0.00 0.00 0.00 0.00 0.00 0.00 0.00 0.00 0.00 0.00 0.00 0.00 0.00 0.00 0.00 0.00 0.00 0.00 0.00 0.00 0.00 0.00 0.00 0.00 0.00 0.00 0.00 0.00 0.00 0.00 0.00 0.00 0.00 0.00 0.00
0.00 0.00 0.00 0.00 0.00 0.00 0.00 0.00 0.00 0.00 0.00 0.00 0.00 0.00 0.00 0.00 0.00 0.00 0.00 0.00 0.00 0.00 0.00 0.00 0.00 0.00 0.00 0.00 0.00 0.00 0.00 0.00 0.00 0.00 0.00 0.00 0.00 0.00 0.00 0.00 0.00 0.00 0.00 0.00 0.00 0.00 0.00 0.00 0.00
0.00 0.00 0.00 0.00 0.00 0.00 0.00 0.00 0.00 0.00 0.00 0.00 0.00 0.00 0.00 0.00 0.00 0.00 0.00 0.00 0.00 0.00 0.00 0.00 0.00 0.00 0.00 0.00 0.00 0.00 0.00 0.00 0.00 0.00 0.00 0.00 0.00 0.00 0.00 0.00 0.00 0.00 0.00 0.00 0.00 0.00 0.00 0.00 0.00
0.00 0.00 0.00 0.00 0.00 0.00 0.00 0.00 0.00 0.00 0.00 0.00 0.00 0.00 0.00 0.00 0.00 0.00 0.00 0.00 0.00 0.00 0.00 0.00 0.00 0.00 0.00 0.00 0.00 0.00 0.00 0.00 0.00 0.00 0.00 0.00 0.00 0.00 0.00 0.00 0.00 0.00 0.00 0.00 0.00 0.00 0.00 0.00 0.00
0.00 0.00 0.00 0.00 0.00 0.00 0.00 0.00 0.00 0.00 0.00 0.00 0.00 0.00 0.00 0.00 0.00 0.00 0.00 0.00 0.00 0.00 0.00 0.00 0.00 0.00 0.00 0.00 0.00 0.00 0.00 0.00 0.00 0.00 0.00 0.00 0.00 0.00 0.00 0.00 0.00 0.00 0.00 0.00 0.00 0.00 0.00 0.00 0.00
0.00 0.00 0.00 0.00 0.00 0.00 0.00 0.00 0.00 0.00 0.00 0.00 0.00 0.00 0.00 0.00 0.00 0.00 0.00 0.00 0.00 0.00 0.00 0.00 0.00 0.00 0.00 0.00 0.00 0.00 0.00 0.00 0.00 0.00 0.00 0.00 0.00 0.00 0.00 0.00 0.00 0.00 0.00 0.00 0.00 0.00 0.00 0.00 0.00
0.00 0.00 0.00 0.00 0.00 0.00 0.00 0.00 0.00 0.00 0.00 0.00 0.00 0.00 0.00 0.00 0.00 0.00 0.00 0.00 0.00 0.00 0.00 0.00 0.00 0.00 0.00 0.00 0.00 0.00 0.00 0.00 0.00 0.00 0.00 0.00 0.00 0.00 0.00 0.00 0.00 0.00 0.00 0.00 0.00 0.00 0.00 0.00 0.00
0.00 0.00 0.00 0.00 0.00 0.00 0.00 0.00 0.00 0.00 0.00 0.00 0.00 0.00 0.00 0.00 0.00 0.00 0.00 0.00 0.00 0.00 0.00 0.00 0.00 0.00 0.00 0.00 0.00 0.00 0.00 0.00 0.00 0.00 0.00 0.00 0.00 0.00 0.00 0.00 0.00 0.00 0.00 0.00 0.00 0.00 0.00 0.00 0.00
0.00 0.00 0.00 0.00 0.00 0.00 0.00 0.00 0.00 0.00 0.00 0.00 0.00 0.00 0.00 0.00 0.00 0.00 0.00 0.00 0.00 0.00 0.00 0.00 0.00 0.00 0.00 0.00 0.00 0.00 0.00 0.00 0.00 0.00 0.00 0.00 0.00 0.00 0.00 0.00 0.00 0.00 0.00 0.00 0.00 0.00 0.00 0.00 0.00
0.00 0.00 0.00 0.00 0.00 0.00 0.00 0.00 0.00 0.00 0.00 0.00 0.00 0.00 0.00 0.00 0.00 0.00 0.00 0.00 0.00 0.00 0.00 0.00 0.00 0.00 0.00 0.00 0.00 0.00 0.00 0.00 0.00 0.00 0.00 0.00 0.00 0.00 0.00 0.00 0.00 0.00 0.00 0.00 0.00 0.00 0.00 0.00 0.00
0.00 0.00 0.00 0.00 0.00 0.00 0.00 0.00 0.00 0.00 0.00 0.00 0.00 0.00 0.00 0.00 0.00 0.00 0.00 0.00 0.00 0.00 0.00 0.00 0.00 0.00 0.00 0.00 0.00 0.00 0.00 0.00 0.00 0.00 0.00 0.00 0.00 0.00 0.00 0.00 0.00 0.00 0.00 0.00 0.00 0.00 0.00 0.00 0.00
0.00 0.00 0.00 0.00 0.00 0.00 0.00 0.00 0.00 0.00 0.00 0.00 0.00 0.00 0.00 0.00 0.00 0.00 0.00 0.00 0.00 0.00 0.00 0.00 0.00 0.00 0.00 0.00 0.00 0.00 0.00 0.00 0.00 0.00 0.00 0.00 0.00 0.00 0.00 0.00 0.00 0.00 0.00 0.00 0.00 0.00 0.00 0.00 0.00
0.00 0.00 0.00 0.00 0.00 0.00 0.00 0.00 0.00 0.00 0.00 0.00 0.00 0.00 0.00 0.00 0.00 0.00 0.00 0.00 0.00 0.00 0.00 0.00 0.00 0.00 0.00 0.00 0.00 0.00 0.00 0.00 0.00 0.00 0.00 0.00 0.00 0.00 0.00 0.00 0.00 0.00 0.00 0.00 0.00 0.00 0.00 0.00 0.00
MSLP
1013.48 1014.06 1014.74 1015.43 1016.04 1016.47 1016.68 1016.68 1016.49 1016.19 1015.87 1015.60 1015.44 1015.39 1015.46 1015.60 1015.77 1015.92 1016.04 1016.14 1016.25 1016.41 1016.66 1017.01 1017.48 1018.02 1018.60 1019.14 1019.61 1019.98 1020.25 1020.44 1020.61 1020.78 1020.99 1021.26 1021.55 1021.85 1022.12 1022.33 1022.46 1022.53 1022.55 1022.55 1022.57 1022.60 1022.66 1022.72 1022.75
1013.74 1014.43 1015.16 1015.83 1016.34 1016.64 1016.68 1016.50 1016.16 1015.74 1015.34 1015.03 1014.86 1014.83 1014.92 1015.08 1015.26 1015.42 1015.55 1015.67 1015.82 1016.03 1016.34 1016.78 1017.34 1017.96 1018.60 1019.20 1019.70 1020.10 1020.40 1020.62 1020.82 1021.02 1021.26 1021.53 1021.83 1022.12 1022.37 1022.56 1022.67 1022.73 1022.76 1022.78 1022.82 1022.89 1022.98 1023.06 1023.11
1014.06 1014.78 1015.50 1016.09 1016.47 1016.60 1016.47 1016.13 1015.66 1015.16 1014.73 1014.42 1014.28 1014.30 1014.43 1014.62 1014.83 1015.00 1015.15 1015.30 1015.48 1015.74 1016.13 1016.64 1017.26 1017.94 1018.63 1019.25 1019.78 1020.19 1020.51 1020.75 1020.96 1021.19 1021.44 1021.73 1022.03 1022.30 1022.53 1022.69 1022.79 1022.84 1022.88 1022.92 1023.00 1023.10 1023.23 1023.34 1023.40
1014.39 1015.10 1015.74 1016.21 1016.43 1016.39 1016.11 1015.65 1015.11 1014.58 1014.16 1013.91 1013.83 1013.90 1014.09 1014.31 1014.54 1014.72 1014.88 1015.05 1015.26 1015.57 1016.00 1016.57 1017.24 1017.95 1018.66 1019.29 1019.81 1020.22 1020.53 1020.78 1021.01 1021.25 1021.53 1021.82 1022.12 1022.39 1022.60 1022.75 1022.84 1022.90 1022.95 1023.02 1023.14 1023.29 1023.45 1023.59 1023.69
1014.72 1015.37 1015.89 1016.21 1016.28 1016.10 1015.70 1015.18 1014.62 1014.12 1013.76 1013.58 1013.58 1013.72 1013.95 1014.19 1014.42 1014.60 1014.75 1014.92 1015.15 1015.49 1015.96 1016.55 1017.24 1017.97 1018.66 1019.28 1019.78 1020.17 1020.47 1020.72 1020.96 1021.22 1021.51 1021.83 1022.13 1022.41 1022.62 1022.78 1022.87 1022.95 1023.03 1023.14 1023.29 1023.48 1023.68 1023.85 1023.96
1015.01 1015.56 1015.95 1016.13 1016.06 1015.78 1015.33 1014.80 1014.27 1013.86 1013.60 1013.51 1013.59 1013.78 1014.02 1014.26 1014.46 1014.61 1014.73 1014.88 1015.11 1015.46 1015.94 1016.55 1017.24 1017.96 1018.63 1019.21 1019.69 1020.05 1020.34 1020.58 1020.84 1021.12 1021.44 1021.78 1022.11 1022.40 1022.64 1022.81 1022.93 1023.03 1023.14 1023.28 1023.47 1023.68 1023.90 1024.09 1024.22
1015.22 1015.66 1015.92 1015.98 1015.83 1015.50 1015.05 1014.57 1014.14 1013.83 1013.68 1013.69 1013.82 1014.03 1014.26 1014.46 1014.60 1014.69 1014.77 1014.89 1015.10 1015.44 1015.92 1016.52 1017.21 1017.90 1018.54 1019.10 1019.54 1019.89 1020.16 1020.42 1020.69 1021.00 1021.34 1021.72 1022.08 1022.40 1022.66 1022.86 1023.00 1023.13 1023.26 1023.43 1023.63 1023.86 1024.09 1024.28 1024.40
1015.33 1015.67 1015.83 1015.81 1015.61 1015.28 1014.89 1014.50 1014.18 1013.99 1013.95 1014.03 1014.19 1014.40 1014.58 1014.71 1014.77 1014.78 1014.80 1014.87 1015.05 1015.38 1015.85 1016.45 1017.11 1017.79 1018.41 1018.94 1019.37 1019.71 1019.99 1020.26 1020.56 1020.90 1021.28 1021.68 1022.07 1022.42 1022.70 1022.92 1023.08 1023.22 1023.37 1023.54 1023.74 1023.96 1024.18 1024.35 1024.47
1015.35 1015.60 1015.69 1015.62 1015.42 1015.13 1014.82 1014.54 1014.35 1014.27 1014.31 1014.43 1014.60 1014.76 1014.88 1014.92 1014.89 1014.82 1014.78 1014.80 1014.96 1015.26 1015.73 1016.31 1016.96 1017.62 1018.23 1018.76 1019.18 1019.53 1019.84 1020.14 1020.47 1020.84 1021.25 1021.68 1022.09 1022.45 1022.74 1022.96 1023.13 1023.26 1023.40 1023.55 1023.74 1023.93 1024.12 1024.28 1024.38
1015.31 1015.48 1015.52 1015.42 1015.25 1015.02 1014.81 1014.64 1014.56 1014.57 1014.66 1014.80 1014.94 1015.04 1015.08 1015.03 1014.92 1014.79 1014.69 1014.68 1014.81 1015.11 1015.55 1016.13 1016.77 1017.42 1018.02 1018.56 1019.00 1019.38 1019.72 1020.05 1020.42 1020.82 1021.25 1021.69 1022.10 1022.46 1022.74 1022.94 1023.09 1023.20 1023.31 1023.44 1023.58 1023.75 1023.91 1024.04 1024.12
1015.25 1015.36 1015.35 1015.25 1015.10 1014.94 1014.81 1014.74 1014.73 1014.80 1014.91 1015.04 1015.14 1015.18 1015.14 1015.03 1014.86 1014.69 1014.56 1014.54 1014.65 1014.93 1015.37 1015.92 1016.55 1017.19 1017.80 1018.34 1018.82 1019.23 1019.61 1019.98 1020.38 1020.80 1021.24 1021.67 1022.07 1022.40 1022.66 1022.84 1022.95 1023.03 1023.11 1023.20 1023.30 1023.43 1023.56 1023.66 1023.74
1015.23 1015.27 1015.22 1015.11 1014.99 1014.87 1014.80 1014.78 1014.82 1014.90 1015.01 1015.11 1015.17 1015.16 1015.08 1014.94 1014.75 1014.57 1014.44 1014.42 1014.53 1014.80 1015.21 1015.74 1016.35 1016.97 1017.58 1018.13 1018.63 1019.07 1019.49 1019.90 1020.32 1020.74 1021.18 1021.59 1021.96 1022.26 1022.48 1022.63 1022.72 1022.77 1022.81 1022.86 1022.94 1023.03 1023.13 1023.22 1023.28
1015.28 1015.26 1015.17 1015.04 1014.91 1014.81 1014.76 1014.76 1014.81 1014.88 1014.97 1015.04 1015.07 1015.04 1014.95 1014.81 1014.65 1014.49 1014.39 1014.38 1014.49 1014.75 1015.13 1015.62 1016.19 1016.78 1017.37 1017.92 1018.43 1018.90 1019.34 1019.77 1020.20 1020.62 1021.04 1021.42 1021.76 1022.03 1022.22 1022.34 1022.41 1022.44 1022.46 1022.50 1022.55 1022.62 1022.70 1022.77 1022.82
1015.43 1015.35 1015.21 1015.04 1014.90 1014.79 1014.72 1014.70 1014.73 1014.77 1014.83 1014.87 1014.89 1014.88 1014.82 1014.73 1014.62 1014.52 1014.47 1014.48 1014.60 1014.82 1015.16 1015.59 1016.10 1016.65 1017.20 1017.74 1018.24 1018.72 1019.17 1019.60 1020.02 1020.42 1020.81 1021.17 1021.47 1021.72 1021.90 1022.02 1022.08 1022.12 1022.14 1022.17 1022.22 1022.28 1022.34 1022.39 1022.42
1015.66 1015.52 1015.33 1015.13 1014.96 1014.81 1014.71 1014.65 1014.63 1014.64 1014.66 1014.70 1014.73 1014.75 1014.76 1014.75 1014.73 1014.71 1014.70 1014.75 1014.85 1015.04 1015.32 1015.69 1016.12 1016.60 1017.11 1017.61 1018.10 1018.56 1018.99 1019.41 1019.80 1020.18 1020.53 1020.86 1021.14 1021.38 1021.56 1021.69 1021.78 1021.84 1021.89 1021.93 1021.98 1022.04 1022.09 1022.12 1022.12
1015.91 1015.73 1015.52 1015.30 1015.09 1014.91 1014.76 1014.65 1014.57 1014.53 1014.53 1014.56 1014.63 1014.72 1014.81 1014.90 1014.98 1015.04 1015.09 1015.16 1015.25 1015.40 1015.61 1015.90 1016.25 1016.67 1017.11 1017.57 1018.03 1018.46 1018.87 1019.25 1019.60 1019.94 1020.25 1020.54 1020.81 1021.05 1021.25 1021.41 1021.53 1021.63 1021.72 1021.79 1021.85 1021.91 1021.95 1021.96 1021.93
1016.13 1015.95 1015.73 1015.51 1015.28 1015.07 1014.87 1014.70 1014.57 1014.48 1014.46 1014.50 1014.61 1014.77 1014.96 1015.16 1015.34 1015.48 1015.59 1015.68 1015.76 1015.86 1016.01 1016.22 1016.50 1016.85 1017.24 1017.66 1018.07 1018.47 1018.83 1019.17 1019.47 1019.75 1020.02 1020.28 1020.53 1020.77 1020.99 1021.18 1021.35 1021.50 1021.62 1021.72 1021.80 1021.86 1021.88 1021.87 1021.80
1016.26 1016.12 1015.94 1015.74 1015.52 1015.29 1015.05 1014.82 1014.63 1014.49 1014.45 1014.50 1014.65 1014.89 1015.17 1015.47 1015.75 1015.98 1016.14 1016.24 1016.31 1016.37 1016.46 1016.62 1016.84 1017.14 1017.48 1017.86 1018.24 1018.60 1018.91 1019.19 1019.44 1019.66 1019.88 1020.10 1020.32 1020.56 1020.79 1021.02 1021.22 1021.40 1021.55 1021.67 1021.76 1021.82 1021.83 1021.80 1021.71
1016.27 1016.21 1016.11 1015.97 1015.77 1015.53 1015.26 1014.97 1014.71 1014.53 1014.45 1014.50 1014.69 1014.99 1015.37 1015.76 1016.13 1016.43 1016.64 1016.77 1016.84 1016.88 1016.94 1017.06 1017.24 1017.51 1017.82 1018.18 1018.52 1018.84 1019.11 1019.34 1019.52 1019.68 1019.83 1020.00 1020.20 1020.42 1020.65 1020.89 1021.11 1021.31 1021.47 1021.60 1021.69 1021.74 1021.74 1021.70 1021.60
1016.18 1016.24 1016.24 1016.17 1016.02 1015.77 1015.46 1015.11 1014.78 1014.53 1014.41 1014.45 1014.66 1015.02 1015.46 1015.95 1016.40 1016.78 1017.04 1017.21 1017.29 1017.34 1017.39 1017.49 1017.66 1017.91 1018.22 1018.55 1018.88 1019.17 1019.40 1019.57 1019.69 1019.78 1019.88 1019.99 1020.15 1020.33 1020.55 1020.77 1020.99 1021.18 1021.34 1021.45 1021.53 1021.57 1021.58 1021.54 1021.44
1016.04 1016.22 1016.34 1016.35 1016.22 1015.97 1015.61 1015.18 1014.77 1014.45 1014.27 1014.29 1014.51 1014.90 1015.41 1015.97 1016.51 1016.96 1017.30 1017.51 1017.63 1017.69 1017.76 1017.86 1018.04 1018.29 1018.60 1018.93 1019.24 1019.50 1019.70 1019.83 1019.90 1019.94 1019.98 1020.04 1020.14 1020.29 1020.46 1020.66 1020.84 1021.00 1021.13 1021.22 1021.28 1021.30 1021.31 1021.28 1021.22
1015.90 1016.20 1016.42 1016.49 1016.39 1016.11 1015.68 1015.17 1014.66 1014.24 1014.00 1013.98 1014.20 1014.62 1015.18 1015.82 1016.44 1016.97 1017.38 1017.66 1017.83 1017.93 1018.02 1018.15 1018.34 1018.60 1018.91 1019.24 1019.54 1019.79 1019.96 1020.06 1020.09 1020.09 1020.09 1020.10 1020.16 1020.26 1020.39 1020.53 1020.67 1020.78 1020.86 1020.91 1020.94 1020.95 1020.95 1020.94 1020.91
1015.80 1016.20 1016.49 1016.60 1016.50 1016.17 1015.67 1015.06 1014.44 1013.92 1013.61 1013.54 1013.74 1014.18 1014.80 1015.50 1016.20 1016.82 1017.31 1017.67 1017.90 1018.06 1018.19 1018.34 1018.54 1018.81 1019.11 1019.44 1019.73 1019.97 1020.14 1020.22 1020.23 1020.21 1020.18 1020.17 1020.19 1020.25 1020.33 1020.41 1020.49 1020.54 1020.56 1020.56 1020.55 1020.54 1020.53 1020.54 1020.53
1015.75 1016.22 1016.55 1016.67 1016.54 1016.15 1015.56 1014.84 1014.12 1013.51 1013.12 1013.01 1013.20 1013.65 1014.31 1015.07 1015.85 1016.56 1017.13 1017.56 1017.87 1018.08 1018.25 1018.42 1018.64 1018.90 1019.20 1019.52 1019.80 1020.04 1020.20 1020.29 1020.30 1020.29 1020.26 1020.23 1020.23 1020.25 1020.28 1020.31 1020.33 1020.31 1020.27 1020.21 1020.15 1020.11 1020.09 1020.09 1020.10
1015.71 1016.22 1016.56 1016.66 1016.49 1016.03 1015.36 1014.55 1013.74 1013.06 1012.60 1012.45 1012.62 1013.08 1013.77 1014.59 1015.43 1016.21 1016.87 1017.38 1017.75 1018.02 1018.23 1018.43 1018.65 1018.90 1019.19 1019.49 1019.77 1020.01 1020.18 1020.28 1020.32 1020.32 1020.30 1020.29 1020.27 1020.27 1020.26 1020.24 1020.19 1020.11 1020.01 1019.89 1019.77 1019.69 1019.63 1019.62 1019.62
1015.62 1016.13 1016.46 1016.54 1016.32 1015.81 1015.08 1014.21 1013.34 1012.59 1012.10 1011.91 1012.07 1012.53 1013.24 1014.09 1014.99 1015.83 1016.56 1017.14 1017.58 1017.91 1018.16 1018.38 1018.60 1018.86 1019.13 1019.42 1019.69 1019.92 1020.10 1020.23 1020.30 1020.33 1020.34 1020.34 1020.32 1020.30 1020.26 1020.19 1020.08 1019.94 1019.77 1019.59 1019.42 1019.29 1019.19 1019.14 1019.12
1015.38 1015.88 1016.20 1016.25 1016.01 1015.47 1014.71 1013.82 1012.93 1012.16 1011.65 1011.45 1011.58 1012.04 1012.75 1013.62 1014.55 1015.44 1016.23 1016.87 1017.38 1017.76 1018.06 1018.30 1018.54 1018.80 1019.06 1019.34 1019.60 1019.84 1020.03 1020.18 1020.28 1020.34 1020.37 1020.38 1020.36 1020.32 1020.25 1020.13 1019.97 1019.77 1019.54 1019.31 1019.09 1018.90 1018.76 1018.67 1018.60
1014.96 1015.44 1015.74 1015.79 1015.54 1015.01 1014.27 1013.40 1012.52 1011.78 1011.27 1011.06 1011.18 1011.62 1012.32 1013.18 1014.12 1015.04 1015.87 1016.57 1017.14 1017.59 1017.94 1018.23 1018.50 1018.76 1019.03 1019.30 1019.56 1019.79 1020.00 1020.16 1020.27 1020.35 1020.39 1020.40 1020.37 1020.30 1020.19 1020.02 1019.81 1019.56 1019.29 1019.01 1018.75 1018.52 1018.34 1018.20 1018.08
1014.33 1014.80 1015.09 1015.13 1014.91 1014.42 1013.74 1012.93 1012.12 1011.42 1010.94 1010.74 1010.86 1011.27 1011.94 1012.78 1013.70 1014.63 1015.50 1016.25 1016.89 1017.41 1017.83 1018.18 1018.49 1018.78 1019.06 1019.32 1019.58 1019.80 1020.00 1020.16 1020.27 1020.35 1020.38 1020.37 1020.31 1020.20 1020.05 1019.83 1019.58 1019.28 1018.97 1018.67 1018.38 1018.13 1017.91 1017.74 1017.58
1013.56 1014.00 1014.27 1014.33 1014.14 1013.73 1013.12 1012.41 1011.69 1011.07 1010.64 1010.47 1010.58 1010.96 1011.59 1012.39 1013.29 1014.22 1015.11 1015.92 1016.63 1017.22 1017.73 1018.15 1018.51 1018.83 1019.13 1019.39 1019.64 1019.85 1020.02 1020.16 1020.25 1020.30 1020.30 1020.26 1020.16 1020.00 1019.79 1019.54 1019.24 1018.91 1018.58 1018.26 1017.96 1017.70 1017.48 1017.28 1017.09
Thickness
5742 5744 5745 5736 5716 5706 5709 5726 5736 5734 5738 5744 5746 5743 5739 5734 5727 5717 5738 5748 5746 5740 5733 5727 5724 5721 5717 5714 5711 5708 5706 5703 5701 5699 5697 5695 5694 5692 5691 5690 5689 5688 5687 5687 5687 5687 5687 5687 5687
5744 5748 5741 5726 5705 5695 5710 5731 5733 5736 5741 5746 5746 5745 5743 5740 5746 5739 5741 5746 5745 5739 5732 5726 5722 5718 5715 5712 5709 5705 5702 5700 5697 5695 5693 5691 5689 5687 5686 5684 5683 5682 5682 5681 5681 5681 5681 5680 5680
5745 5749 5731 5718 5705 5703 5715 5733 5737 5742 5747 5744 5743 5747 5744 5743 5749 5745 5744 5746 5743 5737 5731 5725 5720 5717 5713 5709 5706 5702 5699 5697 5694 5691 5689 5687 5685 5683 5681 5679 5678 5677 5676 5675 5675 5675 5675 5675 5675
5745 5737 5730 5716 5711 5725 5731 5739 5742 5741 5743 5745 5742 5742 5749 5754 5752 5747 5746 5745 5741 5736 5730 5724 5719 5715 5711 5707 5703 5700 5696 5693 5691 5688 5685 5683 5681 5679 5677 5674 5673 5672 5671 5670 5670 5670 5670 5669 5670
5742 5730 5715 5710 5718 5736 5745 5747 5743 5737 5739 5744 5743 5737 5740 5748 5751 5748 5745 5743 5740 5735 5730 5722 5717 5712 5708 5704 5700 5697 5693 5690 5687 5684 5682 5679 5677 5675 5672 5670 5668 5667 5666 5665 5665 5664 5664 5664 5664
5731 5728 5710 5706 5721 5738 5746 5750 5744 5737 5740 5744 5741 5736 5735 5744 5745 5744 5744 5741 5740 5734 5729 5721 5715 5710 5706 5702 5698 5694 5691 5687 5684 5681 5678 5676 5673 5671 5668 5666 5664 5663 5662 5661 5660 5660 5660 5659 5659
5725 5719 5712 5719 5726 5734 5744 5750 5742 5737 5737 5742 5746 5735 5733 5736 5740 5742 5741 5740 5738 5733 5727 5719 5712 5707 5703 5699 5695 5691 5687 5684 5681 5678 5675 5673 5670 5668 5665 5663 5661 5659 5658 5657 5656 5656 5655 5655 5655
5733 5723 5716 5720 5724 5730 5745 5746 5744 5737 5735 5748 5746 5732 5728 5731 5738 5739 5738 5736 5733 5730 5725 5718 5711 5705 5701 5696 5692 5688 5684 5681 5678 5674 5672 5669 5666 5664 5662 5660 5657 5656 5654 5653 5652 5651 5651 5651 5651
5733 5713 5708 5721 5725 5731 5743 5738 5741 5747 5740 5742 5745 5741 5735 5736 5736 5733 5729 5727 5726 5724 5721 5718 5711 5704 5699 5694 5689 5685 5681 5678 5674 5671 5668 5665 5663 5661 5659 5657 5655 5652 5651 5649 5648 5648 5647 5647 5647
5722 5703 5713 5731 5734 5733 5736 5734 5735 5734 5730 5732 5737 5741 5739 5735 5732 5727 5724 5721 5719 5718 5717 5716 5711 5704 5698 5692 5687 5682 5678 5674 5671 5668 5665 5662 5659 5658 5656 5654 5651 5649 5647 5646 5645 5644 5643 5643 5643
5720 5711 5721 5731 5735 5732 5727 5728 5733 5726 5719 5724 5727 5730 5732 5732 5730 5727 5725 5725 5722 5718 5714 5712 5709 5704 5697 5691 5686 5680 5676 5671 5668 5665 5662 5659 5656 5654 5653 5650 5647 5645 5643 5642 5641 5640 5639 5639 5639
5718 5720 5726 5728 5729 5724 5721 5723 5723 5723 5723 5732 5732 5731 5730 5728 5726 5725 5724 5725 5722 5718 5712 5709 5705 5701 5695 5689 5684 5678 5673 5669 5665 5661 5659 5656 5653 5650 5648 5646 5644 5641 5639 5638 5637 5636 5635 5635 5636
5712 5714 5723 5727 5725 5722 5719 5717 5717 5720 5728 5731 5730 5727 5724 5724 5724 5724 5724 5723 5720 5714 5709 5705 5701 5696 5692 5686 5681 5676 5671 5666 5662 5658 5655 5652 5649 5646 5644 5641 5640 5638 5636 5634 5633 5632 5631 5631 5631
5710 5712 5715 5720 5720 5720 5714 5714 5714 5720 5728 5725 5722 5719 5719 5718 5717 5717 5717 5716 5714 5710 5706 5702 5697 5692 5687 5682 5677 5672 5668 5664 5659 5655 5651 5648 5645 5642 5639 5637 5635 5633 5632 5630 5629 5627 5626 5626 5626
5705 5699 5703 5713 5717 5717 5711 5703 5711 5722 5723 5717 5715 5713 5712 5712 5711 5710 5710 5710 5709 5706 5702 5697 5692 5688 5682 5677 5672 5668 5664 5660 5656 5652 5648 5644 5641 5638 5635 5632 5630 5628 5627 5625 5624 5622 5621 5620 5620
5695 5689 5686 5710 5713 5708 5695 5688 5714 5722 5716 5710 5710 5708 5705 5704 5704 5703 5704 5705 5704 5701 5696 5692 5688 5683 5677 5672 5668 5664 5660 5656 5652 5648 5644 5640 5637 5633 5630 5628 5625 5623 5621 5620 5618 5616 5614 5613 5613
5682 5676 5683 5698 5706 5704 5692 5689 5704 5714 5710 5705 5704 5703 5699 5696 5696 5696 5697 5697 5697 5694 5689 5684 5680 5676 5672 5667 5662 5658 5654 5651 5647 5643 5639 5636 5632 5629 5626 5623 5620 5618 5616 5614 5612 5610 5608 5607 5606
5672 5678 5684 5688 5697 5697 5689 5689 5699 5707 5706 5702 5701 5697 5693 5688 5687 5688 5688 5688 5688 5686 5682 5677 5673 5669 5665 5661 5656 5651 5647 5643 5640 5636 5633 5629 5626 5623 5620 5617 5614 5612 5609 5607 5605 5603 5602 5600 5599
5676 5672 5671 5681 5692 5689 5683 5686 5695 5703 5702 5698 5695 5691 5685 5682 5682 5682 5681 5679 5678 5676 5673 5669 5665 5662 5658 5653 5648 5643 5638 5635 5632 5629 5626 5623 5620 5617 5614 5611 5608 5605 5602 5600 5598 5596 5594 5593 5591
5666 5660 5663 5674 5687 5682 5678 5682 5695 5700 5699 5697 5692 5686 5680 5676 5674 5674 5673 5671 5669 5666 5664 5660 5657 5653 5650 5645 5641 5637 5632 5629 5625 5622 5619 5616 5613 5610 5608 5604 5601 5599 5596 5593 5591 5589 5586 5585 5582
5657 5655 5659 5664 5674 5677 5670 5670 5687 5693 5695 5693 5690 5685 5679 5673 5669 5666 5664 5661 5659 5657 5655 5653 5649 5645 5641 5638 5633 5629 5624 5621 5617 5614 5611 5610 5607 5604 5602 5599 5596 5593 5590 5587 5584 5582 5579 5576 5574
5648 5663 5664 5660 5652 5653 5663 5649 5679 5681 5680 5681 5680 5677 5673 5670 5665 5661 5658 5653 5651 5649 5647 5644 5641 5637 5633 5629 5625 5620 5615 5611 5609 5607 5605 5603 5601 5598 5595 5592 5589 5586 5583 5580 5578 5576 5572 5569 5566
5653 5658 5656 5653 5646 5642 5654 5648 5669 5675 5670 5671 5672 5672 5668 5665 5660 5656 5652 5648 5645 5642 5639 5636 5633 5629 5625 5621 5617 5612 5608 5605 5602 5600 5598 5595 5593 5591 5588 5585 5582 5578 5576 5573 5570 5568 5565 5561 5557
5652 5647 5646 5644 5636 5628 5654 5647 5660 5671 5676 5672 5670 5668 5664 5660 5655 5650 5647 5642 5638 5635 5632 5629 5625 5620 5617 5613 5609 5605 5600 5596 5593 5590 5588 5586 5584 5582 5580 5577 5573 5570 5567 5565 5562 5559 5556 5552 5549
5638 5629 5621 5619 5614 5628 5665 5658 5666 5687 5691 5682 5673 5666 5661 5656 5650 5645 5640 5636 5631 5628 5625 5622 5617 5613 5609 5605 5601 5597 5593 5589 5585 5582 5579 5576 5574 5572 5570 5567 5564 5561 5559 5556 5553 5550 5546 5543 5538
5628 5629 5620 5620 5627 5642 5650 5650 5670 5684 5687 5685 5676 5667 5659 5652 5646 5641 5636 5631 5626 5622 5619 5615 5610 5605 5602 5597 5593 5589 5585 5581 5577 5574 5571 5568 5565 5563 5561 5558 5555 5552 5550 5547 5543 5540 5536 5532 5528
5629 5627 5639 5628 5630 5629 5644 5662 5663 5675 5673 5673 5668 5662 5655 5649 5643 5637 5632 5626 5621 5616 5612 5608 5603 5598 5593 5589 5584 5580 5576 5572 5568 5565 5562 5559 5557 5554 5552 5549 5546 5543 5540 5536 5533 5529 5525 5521 5516
5632 5636 5627 5618 5612 5614 5641 5653 5653 5654 5658 5661 5659 5655 5651 5646 5640 5633 5627 5621 5615 5610 5605 5600 5595 5589 5585 5580 5575 5571 5567 5564 5560 5556 5553 5550 5548 5545 5542 5539 5535 5532 5529 5525 5521 5517 5513 5508 5504
5621 5624 5627 5626 5628 5618 5622 5642 5664 5662 5661 5656 5654 5652 5648 5642 5636 5629 5622 5616 5609 5602 5596 5591 5586 5581 5575 5570 5566 5561 5557 5554 5551 5547 5544 5541 5538 5534 5531 5528 5524 5521 5517 5513 5508 5504 5498 5493 5488
5628 5626 5624 5616 5622 5627 5617 5631 5661 5663 5661 5656 5651 5649 5645 5638 5631 5623 5616 5608 5600 5593 5587 5581 5576 5571 5565 5560 5556 5552 5548 5545 5541 5537 5534 5531 5527 5523 5520 5516 5512 5509 5504 5499 5494 5489 5483 5477 5470